Regional Weather Roundup
Issued by NWS

Home | Current Version | Previous Version | Text Only | Print | Product List | Glossary Off
Versions: 1 2 3 4 5 6 7 8 9 10 11 12 13 14 15 16 17 18 19 20 21 22 23 24 25 26 27 28 29 30 31 32 33 34 35 36 37 38 39 40 41 42 43 44 45 46 47 48 49 50

922
ASUS43 KDMX 250206
RWRIA

WEATHER ROUNDUP FOR IOWA
NATIONAL WEATHER SERVICE DES MOINES IA
900 PM CDT TUE APR 24 2018

NOTE: "FAIR" INDICATES FEW OR NO CLOUDS BELOW 12,000 FEET WITH NO
SIGNIFICANT WEATHER AND/OR OBSTRUCTIONS TO VISIBILITY.

* - THESE STATIONS ARE NOT NWS STATIONS...THUS NOT UNDER NWS
QUALITY CONTROL.  THEY ALSO DO NOT REPORT WEATHER SUCH
AS PRECIPITATION OR FOG.

IAZ001>003-012>014-020>022-031>034-043>046-250300-
   NORTHWEST IOWA

CITY           SKY/WX    TMP DP  RH WIND       PRES   REMARKS
CARROLL *      CLOUDY    52  43  71 N20       30.18R
CHEROKEE *     DRIZZLE   46  45  97 N12G17    30.24R
DENISON *      LGT RAIN  50  45  81 N12       30.22R
LE MARS *      CLOUDY    46  43  87 N13G18    30.26R
ORANGE CITY *  CLOUDY    46  43  87 N6        30.26R
SHELDON *      CLOUDY    45  43  93 N8        30.24S
SIOUX CITY     LGT RAIN  47  44  90 N17G23    30.25R
SPENCER        CLOUDY    47  41  80 N10       30.23R
STORM LAKE *   LGT RAIN  46  45  93 N18       30.22R
$$

IAZ055>058-069>071-079>083-090>094-250300-
   SOUTHWEST IOWA

CITY           SKY/WX    TMP DP  RH WIND       PRES   REMARKS
ATLANTIC *     CLOUDY    55  43  62 N14G24    30.18R
AUDUBON *      DRIZZLE   54  43  66 N13G23    30.19R
CLARINDA *     CLOUDY    63  43  48 N18       30.16R
COUNCIL BLFS * CLOUDY    52  52 100 N9        30.19R
CRESTON *      CLOUDY    61  45  55 N18       30.12R
HARLAN  *      CLOUDY    54  43  66 N13G18    30.23R
LAMONI         CLOUDY    64  40  41 N8        30.08R
RED OAK *      CLOUDY    55  48  76 N14       30.17R
SHENANDOAH *   CLOUDY    55  50  82 NW17G25   30.17R
$$

IAZ047>049-059>061-072>074-084-250300-
   CENTRAL IOWA

CITY           SKY/WX    TMP DP  RH WIND       PRES   REMARKS
AMES           CLOUDY    57  43  59 N17       30.14R
ANKENY *       CLOUDY    59  46  63 N20G26    30.13R
BOONE *        CLOUDY    55  43  62 N17G24    30.14R
CHARITON *     CLOUDY    63  45  51 N14G20    30.08R
DES MOINES     CLOUDY    62  47  57 N16       30.11R
GRINNELL*      CLOUDY    58  44  59 NW10      30.10R
KNOXVILLE *    CLOUDY    64  43  45 N12G22    30.07R
MARSHALLTOWN   CLOUDY    59  45  59 N16       30.10R
NEWTON *       PTCLDY    61  46  59 N15       30.09R
PELLA *        PTCLDY    63  44  50 N14       30.09R
PERRY *        CLOUDY    54  37  51 N20       30.16R
$$

IAZ004>006-015-016-023>025-035-036-250300-
   NORTH CENTRAL IOWA

CITY           SKY/WX    TMP DP  RH WIND       PRES   REMARKS
ALGONA *       CLOUDY    48  45  87 N15       30.20R
CLARION *      CLOUDY    52  43  71 N13G24    30.16R
ESTHERVILLE    CLOUDY    45  42  89 NW12      30.22R
FORT DODGE *   CLOUDY    51  45  79 N10G22    30.19R
MASON CITY     CLOUDY    50  42  74 N18       30.16R
FOREST CITY *  MOCLDY    50  43  76 N17       30.17R
WEBSTER CITY * CLOUDY    54  43  66 N16       30.15R
IOWA FALLS *   CLOUDY    56  42  59 N15G24    30.14R
$$

IAZ007>011-017>019-026>030-037>042-050>054-066-250300-
   NORTHEAST IOWA

CITY           SKY/WX    TMP DP  RH WIND       PRES   REMARKS
CEDAR RAPIDS   MOCLDY    64  44  48 NW12      30.04R
CHARLES CITY * FAIR      55  41  58 N17       30.13R
DECORAH *      FAIR      57  37  47 N14       30.08R
DUBUQUE        CLOUDY    63  36  36 N10       30.02R
MONTICELLO *   CLOUDY    63  41  45 NW10      30.03R
OELWEIN *      FAIR      57  45  62 NW10      30.08R
WATERLOO       FAIR      57  42  57 NW13      30.09R
$$

IAZ064-065-067-068-078-250300-
   EAST CENTRAL IOWA

CITY           SKY/WX    TMP DP  RH WIND       PRES   REMARKS
DAVENPORT      FAIR      58  31  35 N7        30.02R
IOWA CITY      MOCLDY    68  39  34 NW12      30.04R
MT. PLEASANT * PTCLDY    64  32  29 NW8       30.02R
MUSCATINE *    MOCLDY    64  34  32 NW9       30.02R
QUAD CITIES    FAIR      66  31  27 NW3       29.99R
$$

IAZ062-063-075>077-085>089-095>099-250300-
   SOUTHEAST IOWA

CITY           SKY/WX    TMP DP  RH WIND       PRES   REMARKS
BURLINGTON     PTCLDY    66  28  24 NW5       30.00R
FAIRFIELD *    CLOUDY    64  39  39 N14       30.04R
FORT MADISON * PTCLDY    64  32  29 NW5       30.02R
KEOKUK *       PTCLDY    64  30  27 CALM      30.01R
OSKALOOSA *    FAIR      63  44  50 N13       30.07R
CENTERVILLE *  FAIR      63  39  42 CALM      30.07S
OTTUMWA        CLOUDY    63  42  46 N16       30.06R
WASHINGTON *   PTCLDY    64  39  39 NW17      30.05R
$$

ABBREVIATIONS USED IN REMARKS
   TC - TEMPERATURES IN CELSIUS
  WCI - WIND CHILL INDEX
   HX - HEAT INDEX
  VSB - VISIBILITY
$$





USA.gov is the U.S. government's official web portal to all federal, state and local government web resources and services.